Location: Recife
(8.0585°S, 34.8848°W)
Time: 02:33:43
(UTC-03:00)

Tiros 1 - Pass Details

Date: 15 April 2026
Orbit: 618 x 648 km, 48.4° (Epoch: 15 May)

Event Time Altitude Azimuth Distance (km) Brightness Sun altitude
Rises 19:21:08 0° 323° (NW) 2,940 11.1 -31.2°
Reaches altitude 10° 19:23:28 10° 325° (NW) 2,035 10.1 -31.8°
Enters shadow 19:25:05 21° 327° (NNW) 1,427 9.2 -32.2°
